FW8155 Weather Reports


Display with metric or nautical units.
time (UTC)temp
F
wind
direction
speed
MPH
gust
MPH
rain 1hr
in
rain 24hr
in
rain mn
in
humidity
%
barometer
mb
20260906205450 84 180 0.0 11.0 0.00 0.11 0.11 63 1014.6
20260906204946 84 169 3.0 7.0 0.00 0.11 0.11 61 1015.1
20260906204445 84 194 3.0 5.0 0.00 0.11 0.11 61 1015.1
20260906203944 84 174 4.0 7.0 0.00 0.11 0.11 61 1014.9
20260906203440 84 217 2.0 5.0 0.00 0.11 0.11 63 1015.2
20260906202937 84 203 5.0 7.0 0.00 0.11 0.11 63 1015.2
20260906202436 83 175 6.0 7.0 0.00 0.11 0.11 64 1015.3
20260906201931 83 157 4.0 13.0 0.00 0.11 0.11 63 1015.4
20260906201426 84 129 6.0 10.0 0.00 0.11 0.11 63 1015.4
20260906200921 82 173 4.0 10.0 0.00 0.11 0.11 65 1015.4
20260906200412 82 199 6.0 7.0 0.00 0.11 0.11 64 1015.4
20260906195911 82 178 4.0 8.0 0.00 0.11 0.11 65 1015.6
20260906195408 82 166 5.0 6.0 0.00 0.11 0.11 66 1015.6
20260906194904 81 223 5.0 13.0 0.00 0.11 0.11 66 1015.6
20260906194359 81 170 5.0 11.0 0.00 0.11 0.11 66 1015.5
20260906193854 82 195 5.0 9.0 0.00 0.11 0.11 67 1015.6
20260906193349 81 200 4.0 11.0 0.00 0.11 0.11 68 1016.0
20260906192845 80 214 5.0 12.0 0.00 0.11 0.11 68 1015.7
20260906192339 80 200 6.0 9.0 0.00 0.11 0.11 66 1015.8
20260906191839 80 170 6.0 7.0 0.00 0.11 0.11 69 1015.7
20260906191339 79 180 8.0 11.0 0.00 0.11 0.11 69 1016.1
20260906190833 80 162 5.0 11.0 0.00 0.11 0.11 68 1015.8
20260906190332 79 208 5.0 11.0 0.00 0.11 0.11 68 1016.1
20260906185827 79 180 8.0 9.0 0.00 0.11 0.11 69 1016.2
20260906185326 79 195 6.0 14.0 0.00 0.11 0.11 68 1016.4
20260906184821 80 195 3.0 11.0 0.00 0.11 0.11 68 1016.3
20260906184315 80 202 3.0 6.0 0.00 0.11 0.11 70 1016.4
20260906183811 79 158 8.0 11.0 0.00 0.11 0.11 72 1016.4
20260906183308 79 148 5.0 12.0 0.00 0.11 0.11 71 1016.4
20260906182808 78 168 4.0 14.0 0.00 0.11 0.11 73 1016.4
20260906182306 78 141 8.0 9.0 0.00 0.11 0.11 73 1017.0
20260906181758 78 200 5.0 11.0 0.00 0.11 0.11 72 1016.6
20260906181254 78 180 9.0 9.0 0.00 0.11 0.11 73 1017.0
20260906180754 77 180 4.0 9.0 0.00 0.11 0.11 74 1017.0
20260906180249 77 154 3.0 14.0 0.00 0.11 0.11 76 1017.0
20260906175746 77 118 5.0 14.0 0.00 0.11 0.11 75 1017.3
20260906175243 77 176 6.0 11.0 0.00 0.11 0.11 75 1017.2
20260906174741 76 178 4.0 11.0 0.00 0.11 0.11 75 1017.3
20260906174241 76 183 5.0 11.0 0.00 0.11 0.11 77 1017.2
20260906173736 76 183 5.0 14.0 0.00 0.11 0.11 77 1017.3
20260906173232 76 167 7.0 12.0 0.00 0.11 0.11 76 1017.7
20260906172731 75 182 12.0 15.0 0.00 0.11 0.11 77 1017.7
20260906172226 75 160 9.0 16.0 0.00 0.11 0.11 77 1017.7
20260906171721 75 187 5.0 13.0 0.00 0.11 0.11 78 1017.6
20260906171216 74 194 8.0 15.0 0.00 0.11 0.11 79 1017.9
20260906170713 75 199 11.0 13.0 0.00 0.11 0.11 79 1017.9
20260906170213 74 180 9.0 13.0 0.00 0.11 0.11 78 1017.6
20260906165709 74 201 3.0 13.0 0.00 0.11 0.11 79 1017.7
20260906165204 74 177 6.0 14.0 0.00 0.11 0.11 78 1017.8
20260906164702 73 187 5.0 13.0 0.00 0.11 0.11 78 1017.8
20260906164158 74 168 8.0 11.0 0.00 0.11 0.11 78 1017.6
20260906163654 74 199 8.0 12.0 0.00 0.11 0.11 79 1017.6
20260906163150 73 194 7.0 10.0 0.00 0.11 0.11 79 1017.6
20260906162647 72 131 5.0 13.0 0.00 0.11 0.11 79 1017.7
20260906162146 72 210 3.0 9.0 0.00 0.11 0.11 80 1017.9
20260906161641 72 184 6.0 11.0 0.00 0.11 0.11 80 1017.9
20260906161140 72 180 4.0 9.0 0.00 0.11 0.11 80 1017.9
20260906160639 71 197 5.0 8.0 0.00 0.11 0.11 80 1018.2
20260906160139 71 182 4.0 10.0 0.00 0.11 0.11 80 1018.0
20260906155636 71 186 14.0 14.0 0.00 0.11 0.11 80 1017.8
20260906155132 71 173 7.0 8.0 0.00 0.11 0.11 80 1017.8
20260906154627 70 190 5.0 8.0 0.00 0.11 0.11 80 1017.6
20260906154127 70 247 3.0 9.0 0.00 0.11 0.11 81 1017.8
20260906153625 70 193 7.0 9.0 0.00 0.11 0.11 81 1018.0
20260906153121 70 180 10.0 11.0 0.00 0.11 0.11 81 1017.9
20260906152615 69 184 6.0 8.0 0.00 0.11 0.11 82 1017.9
20260906152109 69 165 6.0 11.0 0.00 0.11 0.11 84 1017.8
20260906151604 68 186 6.0 8.0 0.00 0.11 0.11 84 1018.0
20260906151100 68 177 3.0 5.0 0.00 0.11 0.11 86 1018.1
20260906150555 66 186 0.0 2.0 0.00 0.11 0.11 87 1018.0
20260906150050 66 180 1.0 3.0 0.00 0.11 0.11 86 1017.9
20260906145549 66 215 1.0 2.0 0.00 0.11 0.11 87 1017.9
20260906145044 65 180 0.0 2.0 0.00 0.11 0.11 87 1017.8
20260906144538 65 183 2.0 3.0 0.00 0.11 0.11 88 1017.9
20260906144034 66 246 0.0 1.0 0.00 0.11 0.11 88 1017.9
20260906143528 66 212 2.0 2.0 0.00 0.11 0.11 88 1017.9
20260906143025 65 286 0.0 2.0 0.00 0.11 0.11 88 1018.0
20260906142519 66 198 0.0 3.0 0.00 0.11 0.11 88 1018.2
20260906142015 65 168 0.0 3.0 0.00 0.11 0.11 88 1018.6
20260906141514 65 199 3.0 4.0 0.00 0.11 0.11 87 1018.2
20260906141009 65 186 3.0 4.0 0.00 0.11 0.11 88 1018.3
20260906140503 65 180 0.0 3.0 0.00 0.11 0.11 88 1018.2
20260906140001 65 135 0.0 3.0 0.00 0.11 0.11 89 1018.2
20260906135459 65 203 1.0 2.0 0.00 0.11 0.11 90 1018.0
20260906134955 64 138 3.0 4.0 0.00 0.11 0.11 91 1018.0
20260906134451 63 157 0.0 3.0 0.00 0.11 0.11 92 1018.1
20260906133951 63 180 0.0 4.0 0.00 0.11 0.11 92 1017.9
20260906133446 63 173 1.0 1.0 0.00 0.11 0.11 92 1018.0
20260906132942 63 83 0.0 2.0 0.00 0.11 0.11 93 1017.8
20260906132437 62 0 0.0 3.0 0.00 0.11 0.11 93 1018.0
20260906131932 63 294 1.0 2.0 0.00 0.11 0.11 93 1018.2
20260906131428 62 124 2.0 3.0 0.00 0.11 0.11 93 1017.8
20260906130923 62 353 0.0 0.0 0.00 0.11 0.11 93 1017.9
20260906130423 62 0 1.0 1.0 0.00 0.11 0.11 93 1017.9
20260906125922 62 165 0.0 2.0 0.00 0.11 0.11 94 1017.8
20260906125420 62 90 0.0 1.0 0.00 0.11 0.11 93 1017.8
20260906124914 62 128 3.0 3.0 0.00 0.11 0.11 93 1017.7
20260906124410 62 120 2.0 3.0 0.00 0.11 0.11 93 1017.3
20260906123910 62 171 0.0 3.0 0.00 0.11 0.11 93 1017.6
20260906123404 62 158 2.0 3.0 0.00 0.11 0.11 93 1017.6
20260906122904 62 165 0.0 2.0 0.00 0.11 0.11 93 1017.7
20260906122359 62 129 2.0 3.0 0.00 0.11 0.11 93 1017.9
20260906121855 62 285 0.0 3.0 0.00 0.11 0.11 92 1017.8
20260906121351 62 252 2.0 2.0 0.00 0.11 0.11 92 1017.7
20260906120847 62 0 1.0 3.0 0.00 0.11 0.11 92 1017.4
20260906120343 62 114 0.0 2.0 0.00 0.11 0.11 92 1017.4
20260906115839 62 278 0.0 0.0 0.00 0.11 0.11 92 1017.6
20260906115334 62 300 3.0 3.0 0.00 0.11 0.11 92 1017.3
20260906114833 62 125 0.0 3.0 0.00 0.11 0.11 91 1017.1
20260906114329 62 201 2.0 5.0 0.00 0.11 0.11 91 1016.9
20260906113824 62 165 0.0 2.0 0.00 0.11 0.11 91 1016.9
20260906113323 62 154 0.0 2.0 0.00 0.11 0.11 91 1017.3
20260906112818 62 6 3.0 4.0 0.00 0.11 0.11 90 1017.3
20260906112315 62 97 0.0 1.0 0.00 0.11 0.11 90 1017.3
20260906111814 62 243 1.0 3.0 0.00 0.11 0.11 90 1017.6
20260906111314 62 150 2.0 3.0 0.00 0.11 0.11 89 1017.3
20260906110809 63 180 0.0 2.0 0.00 0.11 0.11 89 1017.3
20260906110305 63 60 1.0 3.0 0.00 0.11 0.11 88 1016.9
20260906105804 63 75 2.0 3.0 0.00 0.11 0.11 87 1017.2
20260906105259 63 0 0.0 2.0 0.00 0.11 0.11 87 1016.8
20260906104755 63 52 0.0 2.0 0.00 0.11 0.11 87 1017.0
20260906104254 63 331 0.0 2.0 0.00 0.11 0.11 86 1016.6
20260906103752 64 212 0.0 2.0 0.00 0.11 0.11 86 1016.8
20260906103252 64 146 2.0 8.0 0.00 0.11 0.11 86 1016.1
20260906102748 63 135 3.0 5.0 0.00 0.11 0.11 87 1016.3
20260906102246 63 121 2.0 3.0 0.00 0.11 0.11 88 1016.5
20260906101742 63 97 0.0 1.0 0.00 0.11 0.11 88 1017.1
20260906101236 63 90 0.0 0.0 0.00 0.11 0.11 88 1017.1
20260906100732 63 187 0.0 2.0 0.00 0.11 0.11 88 1016.8
20260906100231 63 180 2.0 3.0 0.00 0.11 0.11 87 1016.8
20260906095727 64 190 3.0 4.0 0.00 0.11 0.11 86 1017.0
20260906095222 64 180 0.0 2.0 0.00 0.11 0.11 86 1016.5
20260906094721 64 135 3.0 4.0 0.00 0.11 0.11 86 1016.4
20260906094216 64 130 3.0 3.0 0.00 0.11 0.11 86 1016.5
20260906093713 64 90 0.0 2.0 0.00 0.11 0.11 85 1016.1
20260906093208 64 0 2.0 5.0 0.00 0.11 0.11 85 1016.2
20260906092703 64 45 3.0 5.0 0.00 0.11 0.11 85 1016.1
20260906092202 64 47 3.0 6.0 0.00 0.11 0.11 85 1015.8
20260906091659 64 45 3.0 5.0 0.00 0.11 0.11 85 1015.8
20260906091155 64 90 2.0 4.0 0.00 0.11 0.11 84 1016.0
20260906090651 64 48 2.0 4.0 0.00 0.11 0.11 84 1016.0
20260906090150 64 90 0.0 3.0 0.00 0.11 0.11 84 1016.3
20260906085649 64 134 4.0 8.0 0.00 0.11 0.11 83 1016.2
20260906085148 64 124 10.0 13.0 0.00 0.11 0.11 85 1016.1
20260906084643 63 205 6.0 15.0 0.00 0.11 0.11 87 1016.8
20260906084143 63 165 2.0 8.0 0.00 0.11 0.11 89 1016.2
20260906083638 63 132 5.0 9.0 0.00 0.11 0.11 90 1016.4
20260906083133 62 130 7.0 10.0 0.00 0.11 0.11 92 1016.4
20260906082628 62 132 4.0 13.0 0.00 0.11 0.11 94 1016.3
20260906082124 61 152 2.0 7.0 0.00 0.11 0.11 95 1015.8
20260906081620 61 215 0.0 6.0 0.00 0.11 0.11 95 1016.1
20260906081115 60 72 0.0 7.0 0.00 0.11 0.11 96 1016.1
20260906080611 60 94 2.0 11.0 0.00 0.11 0.11 96 1016.2
20260906080107 60 129 2.0 5.0 0.00 0.11 0.11 97 1016.4
20260906075601 60 194 0.0 5.0 0.00 0.11 0.11 97 1016.2
20260906075055 60 154 2.0 6.0 0.00 0.11 0.11 97 1016.4
20260906074551 60 18 2.0 5.0 0.00 0.11 0.11 97 1016.5
20260906074049 60 52 2.0 7.0 0.00 0.11 0.11 97 1016.4
20260906073544 60 164 0.0 5.0 0.00 0.11 0.11 97 1016.5
20260906073041 60 82 5.0 7.0 0.00 0.11 0.11 97 1016.6
20260906072535 60 246 1.0 9.0 0.00 0.11 0.11 97 1016.4
20260906072031 60 129 5.0 8.0 0.00 0.11 0.11 97 1016.5
20260906071527 60 59 2.0 5.0 0.00 0.11 0.11 97 1016.3
20260906071022 60 95 0.0 8.0 0.00 0.11 0.11 97 1016.3
20260906070518 60 26 0.0 7.0 0.00 0.11 0.11 97 1016.6
20260906070014 60 68 4.0 10.0 0.00 0.11 0.11 97 1016.3
20260906065513 60 130 3.0 10.0 0.00 0.11 0.11 97 1016.5
20260906065009 60 63 3.0 10.0 0.00 0.11 0.11 97 1016.4
20260906064505 60 46 16.0 20.0 0.00 0.11 0.11 97 1016.4
20260906064000 60 45 7.0 10.0 0.00 0.11 0.11 97 1017.1
20260906063455 60 79 8.0 13.0 0.00 0.11 0.11 97 1016.9
20260906062949 60 69 7.0 18.0 0.00 0.11 0.11 97 1016.6
20260906062444 60 121 8.0 16.0 0.05 0.11 0.11 97 1017.3
20260906061939 60 132 4.0 17.0 0.26 0.10 0.10 97 1017.0
20260906061435 60 65 2.0 24.0 0.40 0.10 0.10 97 1017.2
20260906060930 61 33 6.0 17.0 0.33 0.06 0.06 97 1017.8
20260906060427 61 66 7.0 17.0 0.31 0.03 0.03 97 1017.8
20260906055923 62 59 2.0 14.0 0.45 1.11 1.11 97 1017.4
20260906055419 61 23 6.0 12.0 0.69 1.09 1.09 97 1017.3
20260906054914 62 87 3.0 6.0 0.50 1.03 1.03 97 1018.5
20260906054408 62 270 0.0 4.0 0.05 0.95 0.95 97 1018.9
20260906053905 62 140 6.0 10.0 0.14 0.95 0.95 97 1018.1
20260906053400 62 206 1.0 10.0 0.26 0.94 0.94 97 1018.1
20260906052856 63 54 1.0 5.0 0.35 0.92 0.92 97 1018.3
20260906052352 63 138 6.0 8.0 0.24 0.89 0.89 97 1018.3
20260906051849 63 84 2.0 11.0 0.02 0.85 0.85 97 1018.8
20260906051348 62 131 5.0 8.0 0.02 0.85 0.85 97 1018.3
20260906050844 65 124 2.0 7.0 0.00 0.85 0.85 97 1018.7
20260906050339 65 155 4.0 11.0 0.00 0.85 0.85 97 1018.7
20260906045838 65 115 5.0 8.0 0.02 0.85 0.85 97 1017.8
20260906045332 65 109 2.0 5.0 0.05 0.85 0.85 97 1017.9
20260906044829 65 117 6.0 7.0 0.05 0.84 0.84 97 1017.7
20260906044323 65 167 4.0 10.0 0.02 0.84 0.84 97 1017.1
20260906043819 65 137 6.0 10.0 0.02 0.83 0.83 97 1018.0
20260906043315 65 154 3.0 11.0 0.07 0.83 0.83 97 1018.2
20260906042814 65 154 3.0 6.0 0.19 0.83 0.83 97 1017.9
20260906042314 65 116 5.0 6.0 0.69 0.82 0.82 96 1018.7
20260906041809 65 36 3.0 7.0 0.76 0.79 0.79 96 1018.8
20260906041304 65 275 2.0 4.0 0.17 0.69 0.69 96 1019.6
20260906040759 65 300 5.0 10.0 0.05 0.67 0.67 96 1018.6
20260906040255 65 2 9.0 13.0 0.17 0.66 0.66 96 1017.7
20260906035750 64 351 9.0 11.0 0.61 0.65 0.65 96 1018.6
20260906035246 64 331 7.0 14.0 1.37 0.61 0.61 95 1018.6
20260906034746 64 326 12.0 13.0 1.96 0.54 0.54 95 1019.7
20260906034241 64 290 5.0 21.0 1.61 0.34 0.34 94 1020.3
20260906033737 65 291 11.0 28.0 0.73 0.17 0.17 93 1020.2
20260906033236 66 231 2.0 35.0 0.31 0.05 0.05 89 1018.9
20260906032733 68 344 19.0 27.0 0.00 0.00 0.00 82 1017.8
20260906032232 67 206 1.0 9.0 0.00 0.00 0.00 78 1017.9
20260906031728 69 320 6.0 18.0 0.00 0.00 0.00 73 1017.7
20260906031223 70 220 7.0 13.0 0.00 0.00 0.00 75 1017.3
20260906030723 70 19 10.0 24.0 0.00 0.00 0.00 74 1016.4
20260906030218 70 8 10.0 20.0 0.00 0.00 0.00 73 1016.0
20260906025717 70 5 8.0 20.0 0.00 0.00 0.00 75 1016.4
20260906025212 69 39 10.0 19.0 0.00 0.00 0.00 78 1016.4
20260906024711 69 0 9.0 16.0 0.00 0.00 0.00 80 1016.0
20260906024210 69 4 11.0 18.0 0.00 0.00 0.00 80 1015.6
20260906023706 69 0 9.0 17.0 0.00 0.00 0.00 80 1016.0
20260906023201 71 343 22.0 23.0 0.00 0.00 0.00 73 1015.6
20260906022656 78 11 7.0 15.0 0.00 0.00 0.00 56 1015.5
20260906022152 77 28 7.0 15.0 0.00 0.00 0.00 58 1014.9
20260906021647 75 72 10.0 11.0 0.00 0.00 0.00 62 1015.1
20260906021146 74 12 2.0 10.0 0.00 0.00 0.00 63 1014.9
20260906020641 74 105 6.0 9.0 0.00 0.00 0.00 62 1015.1
20260906020136 76 35 4.0 13.0 0.00 0.00 0.00 58 1014.9
20260906015630 78 16 6.0 7.0 0.00 0.00 0.00 55 1015.2
20260906015128 79 114 5.0 13.0 0.00 0.00 0.00 55 1015.2
20260906014623 78 157 3.0 10.0 0.00 0.00 0.00 56 1014.7
20260906014119 78 165 3.0 10.0 0.00 0.00 0.00 57 1014.3
20260906013614 78 203 6.0 7.0 0.00 0.00 0.00 57 1014.0
20260906013110 78 149 3.0 11.0 0.00 0.00 0.00 56 1014.1
20260906012604 78 165 7.0 11.0 0.00 0.00 0.00 54 1013.9
20260906012059 78 133 6.0 15.0 0.00 0.00 0.00 52 1013.7
20260906011555 78 160 7.0 17.0 0.00 0.00 0.00 50 1013.7
20260906011055 77 207 7.0 11.0 0.00 0.00 0.00 48 1013.6
20260906010550 77 172 5.0 16.0 0.00 0.00 0.00 48 1013.6
20260906010046 77 141 6.0 13.0 0.00 0.00 0.00 50 1013.2
20260906005546 77 197 8.0 18.0 0.00 0.00 0.00 53 1013.3
20260906005045 76 155 7.0 19.0 0.00 0.00 0.00 53 1013.7
20260906004544 75 147 7.0 15.0 0.00 0.00 0.00 55 1013.6
20260906004039 75 187 10.0 13.0 0.00 0.00 0.00 56 1013.7
20260906003534 75 179 8.0 22.0 0.00 0.00 0.00 57 1014.1
20260906003031 75 172 5.0 14.0 0.00 0.00 0.00 54 1014.6
20260906002525 76 136 18.0 22.0 0.00 0.00 0.00 53 1014.4
20260906002020 76 202 14.0 30.0 0.00 0.00 0.00 53 1014.6
20260906001515 74 165 9.0 20.0 0.00 0.00 0.00 57 1014.7
20260906001009 73 185 15.0 28.0 0.00 0.00 0.00 59 1014.8
20260906000506 76 180 15.0 27.0 0.00 0.00 0.00 54 1014.7
20260906000000 75 191 8.0 23.0 0.00 0.00 0.00 58 1014.7
20260905235500 75 134 13.0 30.0 0.00 0.00 0.00 59 1014.8
20260905234955 83 178 8.0 20.0 0.00 0.00 0.00 53 1014.3
20260905234450 82 178 13.0 22.0 0.00 0.00 0.00 56 1013.7
20260905233944 82 169 15.0 21.0 0.00 0.00 0.00 55 1013.3
20260905233440 91 162 12.0 29.0 0.00 0.00 0.00 44 1013.1
20260905232938 91 124 9.0 27.0 0.00 0.00 0.00 40 1012.9
20260905232435 91 141 9.0 15.0 0.00 0.00 0.00 41 1013.0
20260905231930 91 133 3.0 13.0 0.00 0.00 0.00 41 1013.1
20260905231426 91 167 5.0 11.0 0.00 0.00 0.00 41 1012.8
20260905230922 92 154 8.0 11.0 0.00 0.00 0.00 41 1013.0
20260905230421 91 155 4.0 14.0 0.00 0.00 0.00 42 1012.8
20260905225919 91 185 7.0 16.0 0.00 0.00 0.00 42 1012.8
20260905225414 91 115 10.0 13.0 0.00 0.00 0.00 41 1012.7
20260905224909 91 147 11.0 15.0 0.00 0.00 0.00 41 1013.0
20260905224405 92 140 11.0 18.0 0.00 0.00 0.00 40 1012.5
20260905223859 92 162 2.0 18.0 0.00 0.00 0.00 40 1012.4
20260905223357 91 182 3.0 14.0 0.00 0.00 0.00 40 1012.9
20260905222851 91 150 6.0 18.0 0.00 0.00 0.00 40 1013.2
20260905222350 92 188 5.0 16.0 0.00 0.00 0.00 38 1013.3
20260905221847 94 193 7.0 18.0 0.00 0.00 0.00 36 1013.1
20260905221343 93 154 2.0 14.0 0.00 0.00 0.00 37 1013.2
20260905220839 93 165 11.0 11.0 0.00 0.00 0.00 37 1013.1
20260905220335 93 167 6.0 8.0 0.00 0.00 0.00 37 1013.1
20260905215834 94 110 12.0 15.0 0.00 0.00 0.00 36 1013.1
20260905215330 93 162 5.0 10.0 0.00 0.00 0.00 38 1013.2
20260905214826 92 161 4.0 15.0 0.00 0.00 0.00 39 1013.5
20260905214321 93 124 5.0 11.0 0.00 0.00 0.00 38 1013.6
20260905213816 92 162 14.0 17.0 0.00 0.00 0.00 39 1013.6
20260905213312 93 128 6.0 14.0 0.00 0.00 0.00 38 1013.7
20260905212807 93 125 7.0 12.0 0.00 0.00 0.00 39 1013.8
20260905212307 93 128 10.0 17.0 0.00 0.00 0.00 40 1013.8
20260905211801 93 150 9.0 14.0 0.00 0.00 0.00 39 1013.8
20260905211256 92 120 9.0 10.0 0.00 0.00 0.00 39 1014.0
20260905210753 93 202 6.0 11.0 0.00 0.00 0.00 39 1014.0
20260905210252 92 120 13.0 14.0 0.00 0.00 0.00 40 1014.1